Weather History for Perry, IA

Change the Weather History Date:

Friday, January 3, 2014

  Actual Average Record
Temperature  
Mean Temperature 10 °F -  
Max Temperature 32 °F 28 °F 46 °F (1990)
Min Temperature -11 °F 10 °F -12 °F (1968)
Degree Days  
Heating Degree Days 54    
Moisture  
Dew Point 8 °F    
Average Humidity 71    
Maximum Humidity 78    
Minimum Humidity 66    
Precipitation  
Precipitation 0.00 in - - ()
Sea Level Pressure  
Sea Level Pressure 29.95 in    
Wind  
Wind Speed 13 mph (South)    
Max Wind Speed 28 mph    
Max Gust Speed 34 mph    
Visibility 10 miles    
Events      
Averages and records for this station are not official NWS values.
T = Trace of Precipitation, MM = Missing Value Source: NWS Daily Summary

Daily Weather History Graph

Daily Weather History Graph

Search for Another Location

Airport:

Trip Planner

Search our weather history database for the weather conditions in past years. The results will help you decide how hot, cold, wet, or windy it might be!

Date:

Astronomy

Jan. 03, 2014 Rise Set
Actual Time 7:44 AM CST 4:58 PM CST
Civil Twilight 7:12 AM CST 5:29 PM CST
Nautical Twilight 6:37 AM CST 6:04 PM CST
Astronomical Twilight 6:04 AM CST 6:38 PM CST
Moon 9:08 AM CST (1/3) 8:11 PM CST (1/3)
Length of Visible Light 10h 16m
Length of Day
9h 14m
Waxing Crescent, 8% of the Moon is Illuminated
Jan 3
Waxing Crescent
Jan 7
First Quarter
Jan 15
Full
Jan 23
Last Quarter
Jan 30
New

Hourly Weather History & Observations

Time (CST) Temp. Windchill Dew Point Humidity Pressure Visibility Wind Dir Wind Speed Gust Speed Precip Events Conditions
12:15 AM -9.6 °F - -15.0 °F 77% 30.41 in 10.0 mi Calm Calm - N/A   Clear
12:35 AM -11.0 °F -20.4 °F -17.1 °F 74% 30.41 in 10.0 mi WSW 3.5 mph - N/A   Clear
12:55 AM -10.5 °F - -16.2 °F 76% 30.39 in 10.0 mi Calm Calm - N/A   Clear
1:15 AM -11.2 °F -20.6 °F -17.1 °F 75% 30.38 in 10.0 mi South 3.5 mph - N/A   Clear
1:35 AM -11.2 °F -20.6 °F -16.8 °F 76% 30.37 in 10.0 mi South 3.5 mph - N/A   Clear
1:55 AM -10.8 °F -24.4 °F -16.4 °F 76% 30.36 in 10.0 mi South 5.8 mph - N/A   Clear
2:15 AM -9.2 °F -20.7 °F -14.8 °F 76% 30.36 in 10.0 mi SSE 4.6 mph - N/A   Clear
2:35 AM -8.3 °F -19.6 °F -13.7 °F 77% 30.35 in 10.0 mi SE 4.6 mph - N/A   Clear
2:55 AM -5.8 °F -19.9 °F -11.2 °F 77% 30.34 in 10.0 mi SE 6.9 mph - N/A   Clear
3:15 AM -4.2 °F -16.5 °F -9.6 °F 78% 30.33 in 10.0 mi SE 5.8 mph - N/A   Clear
3:35 AM -2.0 °F -16.6 °F -7.8 °F 76% 30.32 in 10.0 mi SE 8.1 mph - N/A   Clear
3:55 AM -0.8 °F -15.1 °F -6.7 °F 76% 30.31 in 10.0 mi SE 8.1 mph - N/A   Clear
4:15 AM 0.5 °F -16.5 °F -6.5 °F 72% 30.30 in 10.0 mi SSE 11.5 mph - N/A   Clear
4:35 AM 0.5 °F -17.3 °F -6.7 °F 72% 30.29 in 10.0 mi SSE 12.7 mph - N/A   Clear
4:55 AM 0.7 °F -16.2 °F -6.5 °F 72% 30.29 in 10.0 mi South 11.5 mph - N/A   Clear
5:15 AM 0.7 °F -16.2 °F -6.0 °F 74% 30.27 in 10.0 mi SSE 11.5 mph - N/A   Clear
5:35 AM 1.6 °F -16.7 °F -5.3 °F 73% 30.25 in 10.0 mi South 13.8 mph - N/A   Clear
5:55 AM 2.1 °F -16.0 °F -4.9 °F 72% 30.24 in 10.0 mi South 13.8 mph - N/A   Clear
6:15 AM 2.7 °F -15.3 °F -4.4 °F 73% 30.23 in 10.0 mi South 13.8 mph - N/A   Mostly Cloudy
6:35 AM 2.8 °F -15.0 °F -4.4 °F 72% 30.22 in 10.0 mi South 13.8 mph - N/A   Overcast
6:55 AM 3.2 °F -15.3 °F -4.0 °F 72% 30.18 in 10.0 mi South 15.0 mph - N/A   Overcast
7:15 AM 3.9 °F -14.3 °F -3.6 °F 71% 30.16 in 10.0 mi SSE 15.0 mph - N/A   Overcast
7:35 AM 4.6 °F -15.2 °F -3.3 °F 70% 30.16 in 10.0 mi South 18.4 mph 23.0 mph N/A   Overcast
7:55 AM 5.4 °F -14.2 °F -2.4 °F 70% 30.15 in 10.0 mi South 18.4 mph - N/A   Overcast
8:15 AM 5.9 °F -15.0 °F -2.2 °F 69% 30.14 in 10.0 mi South 21.9 mph - N/A   Overcast
8:35 AM 6.6 °F -13.1 °F -1.5 °F 69% 30.12 in 10.0 mi South 19.6 mph 25.3 mph N/A   Overcast
8:55 AM 6.8 °F -12.4 °F -1.3 °F 69% 30.11 in 10.0 mi South 18.4 mph - N/A   Mostly Cloudy
9:15 AM 7.7 °F -9.5 °F -0.6 °F 69% 30.11 in 10.0 mi SSE 15.0 mph - N/A   Mostly Cloudy
9:35 AM 8.6 °F -8.9 °F 0.7 °F 70% 30.09 in 10.0 mi South 16.1 mph - N/A   Mostly Cloudy
9:55 AM 9.5 °F -8.3 °F 1.4 °F 70% 30.07 in 10.0 mi South 17.3 mph 21.9 mph N/A   Scattered Clouds
10:15 AM 10.6 °F -6.9 °F 2.3 °F 69% 30.07 in 10.0 mi South 17.3 mph 24.2 mph N/A   Clear
10:35 AM 12.2 °F -4.8 °F 3.6 °F 68% 30.05 in 10.0 mi South 17.3 mph - N/A   Clear
10:55 AM 13.8 °F -3.7 °F 5.5 °F 70% 30.03 in 10.0 mi South 19.6 mph - N/A   Clear
11:15 AM 15.6 °F -0.4 °F 7.5 °F 70% 30.01 in 10.0 mi South 17.3 mph - N/A   Clear
11:35 AM 17.8 °F 1.5 °F 9.3 °F 69% 29.98 in 10.0 mi South 19.6 mph 24.2 mph N/A   Clear
11:55 AM 19.9 °F 3.5 °F 11.7 °F 70% 29.95 in 10.0 mi South 21.9 mph 25.3 mph N/A   Clear
12:15 PM 21.7 °F 5.2 °F 13.1 °F 69% 29.92 in 10.0 mi South 24.2 mph - N/A   Clear
12:35 PM 22.8 °F 7.4 °F 14.4 °F 70% 29.89 in 10.0 mi South 21.9 mph 27.6 mph N/A   Clear
12:55 PM 24.1 °F 7.4 °F 15.4 °F 70% 29.87 in 10.0 mi South 27.6 mph 33.4 mph N/A   Clear
1:15 PM 24.3 °F 9.3 °F 15.8 °F 70% 29.85 in 5.0 mi South 21.9 mph 34.5 mph N/A   Haze
1:35 PM 24.8 °F 9.0 °F 16.5 °F 71% 29.82 in 7.0 mi South 25.3 mph 34.5 mph N/A   Clear
1:55 PM 25.9 °F 11.4 °F 17.1 °F 69% 29.80 in 10.0 mi South 21.9 mph 32.2 mph N/A   Clear
2:15 PM 26.8 °F 11.4 °F 18.1 °F 70% 29.76 in 7.0 mi South 26.5 mph 33.4 mph N/A   Clear
2:35 PM 27.3 °F 12.1 °F 18.5 °F 69% 29.73 in 10.0 mi South 26.5 mph 32.2 mph N/A   Clear
2:55 PM 28.6 °F 15.0 °F 19.4 °F 69% 29.74 in 10.0 mi South 21.9 mph 28.8 mph N/A   Clear
3:15 PM 29.3 °F 15.9 °F 19.4 °F 67% 29.74 in 10.0 mi South 21.9 mph 29.9 mph N/A   Clear
3:35 PM 29.8 °F 16.6 °F 19.8 °F 66% 29.72 in 10.0 mi South 21.9 mph 31.1 mph N/A   Clear
3:55 PM 29.3 °F 14.7 °F 19.9 °F 68% 29.70 in 10.0 mi South 26.5 mph 33.4 mph N/A   Clear
4:15 PM 29.8 °F 17.0 °F 20.1 °F 67% 29.70 in 10.0 mi South 20.7 mph 34.5 mph N/A   Clear
4:35 PM 29.7 °F 16.7 °F 19.9 °F 67% 29.70 in 10.0 mi South 20.7 mph 27.6 mph N/A   Clear
4:55 PM 29.3 °F 15.9 °F 19.9 °F 68% 29.69 in 10.0 mi South 21.9 mph 28.8 mph N/A   Clear
5:15 PM 29.3 °F 16.2 °F 20.1 °F 69% 29.68 in 10.0 mi South 20.7 mph 26.5 mph N/A   Clear
5:35 PM 29.3 °F 16.6 °F 20.3 °F 69% 29.68 in 10.0 mi South 19.6 mph 25.3 mph N/A   Clear
5:55 PM 29.7 °F 17.4 °F 20.3 °F 68% 29.67 in 10.0 mi South 18.4 mph 26.5 mph N/A   Clear
6:15 PM 29.5 °F 16.8 °F 20.3 °F 69% 29.67 in 10.0 mi South 19.6 mph - N/A   Clear
6:35 PM 29.3 °F 15.9 °F 20.3 °F 69% 29.66 in 10.0 mi South 21.9 mph 27.6 mph N/A   Clear
6:55 PM 29.3 °F 17.0 °F 20.3 °F 69% 29.66 in 10.0 mi South 18.4 mph 26.5 mph N/A   Clear
7:15 PM 29.3 °F 17.7 °F 20.3 °F 69% 29.66 in 10.0 mi South 16.1 mph - N/A   Clear
7:35 PM 29.3 °F 17.3 °F 20.8 °F 71% 29.66 in 10.0 mi South 17.3 mph - N/A   Clear
7:55 PM 29.8 °F 17.7 °F 21.0 °F 70% 29.65 in 10.0 mi South 18.4 mph 23.0 mph N/A   Clear
8:15 PM 30.2 °F 18.1 °F 21.6 °F 70% 29.63 in 10.0 mi South 18.4 mph 24.2 mph N/A   Clear
8:35 PM 30.4 °F 18.7 °F 21.9 °F 71% 29.63 in 10.0 mi South 17.3 mph - N/A   Clear
8:55 PM 30.7 °F 18.5 °F 22.1 °F 70% 29.60 in 10.0 mi South 19.6 mph - N/A   Clear
9:15 PM 30.9 °F 17.2 °F 22.5 °F 71% 29.58 in 10.0 mi South 25.3 mph 29.9 mph N/A   Clear
9:35 PM 31.1 °F 17.7 °F 22.8 °F 71% 29.58 in 10.0 mi South 24.2 mph 28.8 mph N/A   Clear
9:55 PM 31.1 °F 18.3 °F 23.0 °F 72% 29.58 in 10.0 mi SSW 21.9 mph 25.3 mph N/A   Clear
10:01 PM 32.0 °F 18.9 °F 23.0 °F 69% 29.58 in 10.0 mi South 24.2 mph 28.8 mph N/A   Clear
10:15 PM 32.0 °F 19.5 °F 23.4 °F 70% 29.57 in 10.0 mi SSW 21.9 mph 28.8 mph N/A   Clear
10:35 PM 32.0 °F 18.9 °F 23.4 °F 70% 29.58 in 10.0 mi SSW 24.2 mph 28.8 mph N/A   Clear
10:55 PM 32.2 °F 18.9 °F 23.2 °F 69% 29.58 in 10.0 mi SSW 25.3 mph 32.2 mph N/A   Clear
11:15 PM 32.4 °F 20.0 °F 23.2 °F 69% 29.59 in 10.0 mi SSW 21.9 mph 29.9 mph N/A   Clear
11:35 PM 32.4 °F 19.4 °F 23.0 °F 68% 29.58 in 10.0 mi SSW 24.2 mph 31.1 mph N/A   Clear
11:55 PM 32.7 °F 20.1 °F 23.4 °F 68% 29.59 in 10.0 mi SSW 23.0 mph 29.9 mph N/A   Clear